Skip Page Navigation
NASA JPL Caltech
NASA Logo - Jet Propulsion Laboratory + View the NASA Portal
+ Center for Near-Earth Object Studies
JPL Home Earth Solar System Stars & Galaxies Technology
JPL Solar System Dynamics
BODIES ORBITS EPHEMERIDES TOOLS PHYSICAL DATA DISCOVERY FAQ SITE MAP
JPL Small-Body Database Browser
Search: [ help ]  
160140 (2001 DZ3)
Classification: Jupiter Trojan          SPK-ID: 2160140
Ephemeris | Orbit Diagram | Orbital Elements | Mission Design | Physical Parameters | Discovery Circumstances ]

[ show orbit diagram ]
Orbital Elements at Epoch 2459200.5 (2020-Dec-17.0) TDB
Reference: JPL 19 (heliocentric ecliptic J2000)
 Element Value Uncertainty (1-sigma)   Units 
e .05788397742199714 8.8249e-08  
a 5.209800625282989 1.3143e-07 au
q 4.908236643516002 4.7793e-07 au
i 24.52526629943821 9.375e-06 deg
node 339.2882609621634 1.3294e-05 deg
peri 28.64533747306137 6.0959e-05 deg
M 14.28023009239404 5.4236e-05 deg
tp 2459028.208922712040
(2020-Jun-27.70892271)
0.00065802 TDB
period 4343.402551804912
11.89
0.00016436
4.5e-07
d
yr
n .08288432759943032 3.1365e-09 deg/d
Q 5.511364607049977 1.3904e-07 au
  Orbit Determination Parameters
   # obs. used (total)      633  
   data-arc span      7650 days (20.94 yr)  
   first obs. used      2000-01-27  
   last obs. used      2021-01-06  
   planetary ephem.      DE441  
   SB-pert. ephem.      SB441-N16  
   condition code      0  
   norm. resid. RMS      .49591  
   source      ORB  
   producer      Otto Matic  
   solution date      2021-Apr-13 20:00:04  

Additional Information
 Earth MOID = 3.91649 au 
 Jupiter MOID = .0505774 au 
 T_jup = 2.816 
[ show covariance matrix ]

Ephemeris | Orbit Diagram | Orbital Elements | Mission Design | Physical Parameters | Discovery Circumstances ]

Physical Parameter Table
Parameter Symbol Value Units Sigma Reference Notes
absolute magnitude H 12.18   n/a E2021B55  
diameter diameter 19.285 km 0.610 urn:nasa:pds:neowise_diameters_albedos::2.0[jupiter_trojans] (http://adsabs.harvard.edu/abs/2011ApJ...742...40G)  
geometric albedo albedo 0.083   0.016 urn:nasa:pds:neowise_diameters_albedos::2.0[jupiter_trojans] (http://adsabs.harvard.edu/abs/2011ApJ...742...40G)  

160140 (2001 DZ3)          Discovered 2001-Feb-16 by LINEAR at Socorro
Reference: 20070730/Numbers.arcLast Updated: 2007-08-06

Alternate Designations
 2001 DZ3 = 2000 BP5 
Ephemeris | Orbit Diagram | Orbital Elements | Mission Design | Physical Parameters | Discovery Circumstances ]
ABOUT SSD CREDITS/AWARDS PRIVACY/COPYRIGHT GLOSSARY LINKS
FirstGov 2021-Apr-22 00:54 UT
(server date/time)  
NASA Home Page
Site Manager:   Ryan S. Park
Webmaster  Alan B. Chamberlin